Theta_e
316 318 320 321 321 321 322 324 324 324 324 324 324 324 324 324 323 321 322 323 324 323 323 323 321 318 318 319 318 317 319 318 318 319 321 321 324 324 327 327 327 330 329 326 325 330 323 323 323 323 324 322 321 321 320 321 322 323 324 322 321 321 322 323 322 320 320 318 315 315 319 326 330 326 325 325 326 324 324 325 325 326 326 325 325
316 317 319 320 321 320 322 324 324 322 323 323 323 324 323 322 322 321 320 320 322 323 323 321 319 320 319 317 315 315 317 316 315 315 317 320 321 321 323 322 323 326 328 326 326 326 323 322 321 323 326 322 320 321 321 325 321 321 322 321 321 319 319 322 321 319 315 313 314 313 314 316 321 323 325 327 326 325 323 322 324 324 325 324 326
313 315 317 319 319 319 323 323 323 323 323 323 323 322 321 320 321 320 318 318 317 319 320 319 316 318 318 315 316 311 312 314 314 317 318 316 314 316 317 316 318 319 325 327 326 326 324 322 322 321 322 322 321 322 324 322 320 320 320 321 320 322 322 322 319 315 314 313 313 311 308 308 312 314 318 324 326 323 321 323 324 324 326 326 326
313 315 317 318 318 319 322 322 322 323 322 322 322 321 321 321 320 319 317 316 316 319 319 317 318 317 317 315 313 312 312 318 315 314 314 315 315 315 315 314 315 316 318 324 326 325 323 322 321 321 320 323 325 324 323 321 318 319 318 318 321 318 320 321 321 318 315 314 310 308 308 302 302 308 309 317 323 323 320 323 324 325 325 325 324
313 314 316 317 317 318 322 323 322 322 322 322 321 321 321 320 320 319 317 316 317 321 317 318 317 315 315 315 316 315 315 313 313 313 313 318 314 314 313 313 315 316 316 319 324 320 319 320 321 321 322 323 324 323 322 322 321 319 319 319 318 319 318 321 324 324 321 317 314 310 305 303 303 308 310 314 317 320 321 322 328 324 325 323 323
314 314 316 317 317 318 321 322 322 323 322 322 322 321 321 320 320 318 317 317 318 316 316 317 317 314 313 313 311 310 311 310 309 310 311 311 311 312 312 313 313 312 312 314 316 316 314 317 319 321 321 321 320 319 322 322 320 318 317 318 316 316 319 321 321 323 321 320 317 315 310 307 307 314 311 307 311 318 318 321 321 324 321 322 322
312 314 315 315 316 318 321 321 323 323 323 323 322 321 320 321 321 319 319 318 317 316 316 318 314 314 314 313 312 312 311 308 308 309 310 310 311 311 310 310 310 311 311 311 313 315 314 315 317 319 319 318 321 317 316 316 318 319 318 316 316 318 319 318 320 319 318 320 321 320 321 316 313 310 307 304 306 309 312 316 320 322 323 322 322
313 315 316 316 316 319 321 322 323 324 324 323 322 321 320 320 320 319 319 319 317 316 315 317 315 312 312 311 312 310 311 310 311 311 310 312 310 309 309 308 309 310 311 312 313 315 314 314 316 317 317 317 317 314 313 314 316 316 316 316 317 316 317 319 319 320 316 316 320 316 318 319 316 316 313 308 304 305 308 311 312 312 316 318 319
314 315 315 315 316 318 321 321 322 323 324 324 323 321 320 320 320 319 319 317 315 315 315 314 315 313 313 312 311 311 310 311 313 313 311 310 308 307 307 307 308 309 309 311 311 313 316 313 314 315 314 314 317 314 313 313 313 313 313 314 314 314 315 315 319 318 315 316 318 318 318 316 314 313 313 310 305 302 304 304 305 306 307 308 312
314 316 315 314 316 317 320 322 321 323 324 324 324 321 319 319 319 318 317 315 314 313 314 313 313 314 313 312 311 311 312 311 310 310 308 307 307 305 306 307 307 308 308 308 310 311 312 314 313 313 313 314 314 311 311 311 310 310 310 311 311 310 309 312 314 311 314 316 318 317 316 313 307 305 305 307 308 305 304 303 303 301 301 303 306
313 315 314 313 314 316 319 321 321 320 321 323 323 322 319 318 317 316 316 315 314 312 311 311 312 313 313 312 313 313 312 312 310 308 308 306 306 305 305 305 306 306 309 308 309 310 311 313 312 312 313 316 312 310 309 309 308 308 308 308 308 307 306 307 308 308 308 309 310 312 310 308 304 303 303 304 303 300 300 301 300 303 302 301 304
312 313 312 312 313 313 315 318 318 319 319 320 320 321 319 318 318 317 317 316 315 314 312 311 311 312 312 313 314 315 314 313 312 310 308 306 304 304 305 305 305 306 306 307 307 309 311 310 311 310 311 309 309 309 309 308 308 308 308 307 306 306 306 307 305 305 305 305 304 304 304 305 305 304 303 302 303 301 300 299 299 299 299 299 303
311 312 311 312 313 314 315 317 316 317 319 319 319 319 318 317 319 318 316 317 316 316 314 313 312 314 314 314 315 316 315 314 313 311 309 307 305 304 304 305 304 305 305 307 306 306 309 308 309 309 308 310 307 307 306 307 307 307 307 305 305 304 303 304 303 302 303 303 302 302 303 304 303 302 303 303 301 300 299 296 299 299 299 299 299
310 312 312 312 313 314 315 316 316 316 315 317 318 318 317 317 318 318 317 317 317 316 315 314 314 315 315 315 316 316 314 314 314 313 309 307 306 305 304 305 304 304 304 305 306 306 307 308 308 307 307 307 307 307 307 307 307 307 307 306 305 303 304 304 303 303 302 301 302 303 303 303 302 303 302 303 301 301 299 298 298 297 297 299 299
308 309 310 310 310 311 312 313 314 315 316 316 317 318 316 316 317 318 318 317 316 316 315 314 315 316 316 317 316 315 315 314 314 313 310 308 306 305 305 304 304 304 304 305 308 305 306 306 307 307 307 307 308 308 309 307 308 308 307 306 306 304 305 305 302 303 303 301 300 303 303 301 301 301 303 302 303 303 301 300 297 295 294 293 297
308 308 309 309 308 309 311 312 314 315 315 315 317 318 317 315 316 318 318 318 317 317 316 315 315 315 315 315 315 316 316 315 314 313 311 309 307 307 306 305 305 305 304 306 306 306 306 307 306 305 305 306 307 307 307 307 306 306 305 306 306 307 304 304 302 302 301 300 300 300 302 300 300 301 302 301 302 303 303 300 299 297 294 292 293
308 307 307 308 308 308 309 310 312 314 315 316 317 317 318 316 316 316 317 316 317 317 317 317 316 316 315 314 314 314 315 314 314 312 311 310 308 307 307 307 306 306 306 307 305 305 306 305 305 305 305 306 306 306 306 305 304 306 306 304 305 303 306 303 302 302 300 301 300 301 302 302 301 301 302 304 303 301 302 300 300 299 297 294 292
308 309 307 306 307 307 308 310 312 314 316 316 317 318 318 318 316 316 315 315 317 318 317 316 315 314 314 314 315 315 314 314 314 313 312 311 308 307 307 308 308 307 308 310 307 305 306 312 304 304 304 305 306 305 305 305 305 304 305 305 304 303 304 302 303 302 301 302 303 301 301 301 301 302 302 303 303 302 301 302 301 300 299 297 295
307 308 308 307 307 307 307 308 311 312 314 315 315 315 315 314 314 314 315 315 316 318 317 317 316 316 316 314 315 314 314 315 315 314 313 312 310 309 308 309 308 308 309 308 306 305 306 306 305 305 305 306 305 306 306 306 306 305 305 305 303 303 303 301 302 303 302 303 301 300 299 300 300 301 302 302 302 302 301 300 300 301 301 298 296
306 306 305 306 306 306 306 307 310 311 312 313 313 314 314 314 315 315 316 316 316 317 317 316 316 316 316 315 315 314 315 315 315 314 314 313 313 311 309 307 309 309 307 307 305 305 306 305 305 305 306 305 305 305 305 305 306 306 306 306 303 302 303 301 303 303 304 302 301 300 300 299 300 300 301 301 301 301 302 301 301 300 300 299 297
303 304 304 305 305 306 307 306 308 309 311 312 312 312 313 314 314 314 315 315 315 316 316 316 316 315 315 315 315 315 315 316 315 314 314 314 314 313 312 311 310 309 308 308 307 306 306 306 305 306 305 304 305 304 305 304 304 304 303 304 303 303 304 301 302 302 302 301 301 300 301 302 300 300 299 301 301 299 300 300 300 298 298 299 298
303 304 304 305 305 306 306 306 307 308 310 310 311 311 311 312 313 313 314 314 314 315 317 317 316 315 314 314 316 316 316 316 315 315 315 316 315 314 313 311 310 310 309 310 309 307 307 306 305 305 305 305 306 305 304 304 304 304 302 304 305 303 302 302 301 301 301 302 300 300 301 301 299 300 299 301 299 298 299 299 299 298 297 297 297
304 304 304 304 304 304 306 306 305 306 308 308 308 309 309 311 312 312 314 313 314 315 315 316 315 314 313 314 316 316 316 316 316 315 316 316 314 314 314 312 311 309 309 310 310 309 309 308 306 306 305 305 305 305 304 304 304 304 303 303 305 303 303 302 301 301 301 300 300 301 300 300 301 300 298 298 299 299 299 298 297 297 296 296 297
305 305 305 304 305 305 305 306 306 306 307 307 308 309 309 310 312 312 312 313 313 314 314 315 314 314 314 314 314 315 315 315 315 315 315 315 314 314 316 314 313 311 310 309 309 310 310 309 308 307 307 307 306 306 306 305 305 304 304 304 303 303 303 303 303 302 301 301 301 300 300 300 300 299 298 298 298 298 297 297 296 296 296 296 295
304 305 305 305 306 305 305 305 305 305 306 306 307 309 309 310 311 312 312 313 313 313 314 314 314 313 313 313 313 314 314 315 315 316 316 316 315 316 316 315 315 314 313 311 312 310 310 310 311 310 309 308 308 307 307 306 306 306 306 305 304 303 303 303 303 303 305 302 301 301 301 300 299 299 297 298 297 296 296 295 294 295 295 295 295
303 303 304 304 303 304 304 304 305 306 306 306 307 308 310 310 308 310 312 312 313 312 313 313 313 313 312 312 312 312 313 314 315 315 315 316 316 316 317 316 316 314 313 313 312 311 312 311 311 311 310 310 308 308 308 308 307 307 306 305 305 305 304 303 303 303 304 303 302 301 301 302 300 300 299 298 296 295 294 294 293 293 294 293 292
303 303 301 300 301 302 303 303 304 305 306 307 307 308 308 309 309 310 310 310 310 310 311 310 311 312 311 311 311 311 310 310 312 312 314 315 315 316 316 314 313 314 313 312 312 311 311 311 311 312 311 310 309 308 309 309 308 307 307 306 305 305 305 304 305 305 304 303 303 302 302 302 302 300 299 298 296 294 295 293 295 294 292 292 292
299 299 301 302 300 300 300 300 301 303 304 306 306 307 308 307 308 309 309 309 311 310 311 311 311 310 310 310 310 309 309 309 310 311 312 313 313 312 312 312 313 313 314 313 313 313 313 313 313 313 313 312 312 311 310 310 309 308 307 307 307 306 306 305 305 305 305 304 303 303 303 302 302 301 300 298 297 296 294 293 294 293 292 291 290
297 297 298 299 300 300 299 299 299 300 301 302 303 303 303 304 307 308 309 309 309 309 309 309 310 310 310 311 309 308 309 310 312 313 313 312 313 313 312 312 313 312 311 311 312 311 311 312 312 312 313 313 313 313 313 312 311 309 308 308 308 308 307 306 305 305 304 304 304 303 302 302 304 306 304 302 300 298 295 292 292 293 291 290 289
296 297 298 297 297 296 296 297 297 299 299 301 301 301 302 305 304 305 308 308 309 309 310 309 309 309 309 309 309 308 310 311 311 313 313 313 313 310 310 312 312 313 313 311 311 312 312 312 312 312 312 313 312 313 312 307 308 311 310 310 309 308 308 307 306 305 304 303 304 303 305 308 306 306 302 298 296 296 298 296 293 292 292 289 289
297 297 297 296 296 295 295 295 295 296 298 299 300 300 301 302 304 304 306 304 306 307 307 308 309 308 308 308 308 309 309 311 313 313 313 312 309 310 311 312 311 310 308 310 312 312 312 312 312 312 312 311 312 313 306 302 300 301 310 309 308 308 308 308 307 306 305 304 303 304 304 306 306 304 301 296 294 294 294 294 295 295 295 292 289
297 297 297 297 297 296 296 295 294 294 295 297 298 298 299 300 299 301 303 303 303 304 305 305 304 303 304 307 308 309 309 311 311 312 311 311 309 310 310 309 308 307 305 309 308 310 311 309 309 309 309 310 310 307 302 301 299 298 301 309 309 308 308 308 307 306 306 305 304 302 302 304 302 301 300 297 295 294 293 293 292 293 293 294 294
295 295 295 295 296 297 297 297 297 296 295 296 296 296 297 296 296 297 298 299 299 300 299 300 299 300 302 302 303 305 307 306 307 309 306 305 308 308 307 306 307 308 306 307 309 307 307 307 308 309 309 309 309 305 301 300 299 298 297 301 308 308 307 307 306 306 305 304 302 301 302 302 301 304 302 296 295 294 293 293 293 293 293 292 291
294 294 295 295 295 297 298 297 297 297 297 295 296 297 296 297 297 296 295 295 295 295 296 296 295 296 299 300 302 302 302 302 301 300 300 301 302 305 304 303 304 304 307 307 306 307 306 306 307 307 307 305 306 304 300 299 298 297 296 297 305 306 305 306 306 306 305 303 302 302 301 300 300 301 297 296 296 295 294 293 291 289 289 292 292
293 293 294 293 294 295 297 297 297 297 297 297 297 296 295 296 295 295 295 295 293 293 294 295 294 295 295 296 299 300 299 297 296 297 296 296 297 296 297 296 299 300 302 302 301 303 303 303 303 303 302 303 305 302 297 295 295 295 295 295 300 303 303 303 303 303 301 300 301 302 301 300 300 300 300 297 296 295 294 294 292 291 289 289 289
294 293 293 295 296 297 298 298 299 299 299 300 299 297 297 296 296 295 294 293 293 293 293 293 294 293 294 295 296 295 295 295 294 294 295 294 294 294 296 296 294 294 294 294 295 296 298 298 298 297 298 301 300 297 293 293 294 294 294 297 299 299 299 298 298 298 298 299 300 301 301 301 301 300 296 295 296 296 294 292 290 287 288 288 289
293 292 292 294 295 298 299 301 298 299 301 301 301 300 298 298 298 297 295 296 296 295 295 294 294 294 295 295 295 295 295 294 293 294 293 293 293 294 293 293 292 291 293 294 294 296 296 296 296 298 298 300 297 293 293 294 293 293 295 297 296 297 297 296 295 296 297 298 299 300 300 298 295 293 292 291 292 293 292 290 288 286 286 286 286
289 291 291 291 293 295 296 297 297 298 299 300 301 300 299 299 299 298 297 299 297 296 295 295 295 295 295 294 295 295 296 294 293 294 294 293 292 292 291 294 293 292 292 292 293 293 292 292 294 296 297 297 296 292 293 292 292 293 297 298 297 296 295 295 293 292 292 294 298 303 298 293 292 292 290 290 290 292 290 288 287 285 285 284 284
288 288 289 290 290 292 293 292 291 291 294 298 301 301 300 299 299 299 298 298 298 298 298 298 300 297 295 295 294 295 294 294 294 293 293 293 293 294 292 291 291 292 292 291 293 293 290 290 290 293 301 297 290 291 293 291 292 293 297 297 297 296 294 292 291 289 289 290 292 296 296 293 292 291 289 289 289 291 288 287 285 284 283 282 283
287 288 288 289 290 289 290 289 289 290 290 291 294 294 295 295 297 296 297 299 299 300 298 297 297 297 297 296 296 296 294 294 293 293 293 293 293 293 294 293 290 291 291 290 291 290 290 288 288 289 290 289 288 288 291 292 293 294 296 297 296 296 293 291 289 290 289 288 289 290 291 289 289 289 289 288 289 289 287 285 284 283 282 284 283
288 288 292 287 287 288 288 288 288 289 289 290 290 290 291 292 293 293 292 295 298 298 297 296 296 296 296 297 296 296 295 295 294 295 294 295 293 293 292 292 292 290 289 289 289 288 288 287 287 286 286 287 290 289 290 292 293 294 294 295 294 294 292 291 291 290 289 288 288 289 289 289 288 288 288 288 289 289 288 285 283 283 284 287 285
289 291 289 287 287 287 287 287 288 289 290 289 289 289 290 290 290 290 292 294 296 298 297 296 296 296 296 297 297 296 296 296 295 295 296 296 293 292 292 292 291 291 290 288 288 287 286 285 285 285 286 285 290 294 289 291 291 292 292 293 293 292 293 292 290 289 288 288 289 289 289 289 288 288 288 288 288 289 289 290 286 287 287 287 285
287 287 288 289 288 288 287 287 288 288 289 289 289 289 289 289 289 290 292 292 293 294 295 297 296 297 298 298 297 297 297 298 297 296 295 294 293 293 292 290 291 291 289 288 287 286 286 285 284 284 284 285 285 289 292 289 290 290 291 291 291 290 291 292 290 288 288 287 288 287 289 290 288 288 288 288 288 288 289 287 288 287 287 287 288
288 288 288 289 288 288 288 288 288 288 289 289 290 289 289 289 290 292 291 292 291 291 291 293 294 294 295 296 297 297 296 296 295 294 293 293 292 291 291 292 290 291 289 288 286 287 285 284 284 284 285 284 285 285 290 290 289 290 290 290 290 290 290 291 290 288 288 287 287 286 288 288 288 288 288 288 287 288 286 287 288 287 288 288 285
287 287 288 288 288 288 288 288 288 288 288 289 289 290 290 290 291 292 292 292 292 292 291 291 292 292 292 293 294 294 294 294 295 295 293 292 292 291 292 289 290 290 289 289 286 286 287 285 284 285 283 284 284 285 286 289 289 289 289 289 289 289 289 290 290 290 289 289 289 289 288 288 288 288 288 288 288 288 287 287 287 288 289 283 284
287 287 288 288 288 288 287 287 288 289 289 289 289 290 290 292 293 293 293 293 293 292 292 292 292 291 292 292 291 292 292 292 292 293 295 292 293 291 291 288 289 288 288 290 287 287 286 285 285 283 284 284 284 284 285 286 289 290 289 289 289 289 290 290 290 289 289 288 288 288 288 288 288 288 287 284 284 284 287 287 287 287 283 283 282
286 286 287 287 287 287 287 288 288 289 289 289 289 290 290 291 292 293 294 294 293 293 293 293 293 293 292 292 292 291 290 290 288 289 290 292 291 290 291 289 288 288 288 287 288 288 286 285 284 284 283 284 285 284 284 284 285 287 287 288 288 289 289 289 289 289 289 288 288 288 287 287 287 287 286 286 286 286 284 284 282 282 282 282 282
286 286 287 286 286 286 286 287 288 289 289 289 289 290 291 291 291 291 292 293 294 294 293 293 293 293 293 293 293 290 291 289 285 286 289 289 289 290 291 292 290 290 290 288 288 287 288 287 284 283 283 284 284 285 284 285 285 286 287 288 289 288 287 286 287 287 287 288 286 287 286 285 285 284 283 282 282 282 282 283 281 280 281 282 285
284 285 286 285 285 286 286 286 287 288 289 289 289 290 290 290 291 291 290 290 291 291 292 293 293 292 292 292 292 292 293 291 287 284 282 283 286 289 293 292 290 290 293 293 291 290 289 288 288 286 285 284 285 286 286 287 288 288 287 287 286 286 286 285 287 287 286 284 284 284 282 282 281 280 279 278 279 278 278 279 280 281 281 281 281
284 285 284 284 285 285 285 286 287 287 288 288 289 290 290 290 290 291 290 289 290 290 290 291 292 292 292 292 292 291 292 290 289 287 286 284 285 287 285 287 288 288 290 292 292 291 291 290 288 287 287 287 286 287 288 288 288 288 288 287 287 287 287 287 287 287 286 283 281 280 278 279 277 278 276 276 276 275 275 277 277 281 279 279 280
283 283 283 283 284 285 285 284 285 286 286 287 287 288 289 289 289 290 290 290 289 289 289 288 289 290 291 291 291 291 291 290 288 287 286 285 285 285 287 287 288 289 290 291 291 291 291 290 290 287 285 288 288 288 288 288 288 287 287 287 287 287 287 287 287 285 282 280 280 279 277 276 276 276 275 278 275 276 277 276 278 277 279 279 279
Wind_Speed
3 6 6 6 6 4 5 5 5 5 5 7 8 7 7 8 8 7 5 6 7 7 6 7 6 4 4 4 4 1 2 1 1 1 1 1 1 3 3 4 4 5 7 7 6 4 2 2 1 1 2 2 3 3 3 2 2 3 4 1 3 4 2 1 2 1 4 2 1 3 3 2 4 3 2 1 2 2 2 1 1 5 4 2 1
4 4 6 6 6 5 5 5 5 7 5 7 9 9 7 7 8 8 5 5 6 7 7 5 3 4 5 4 3 2 2 2 1 1 1 1 1 1 2 3 3 3 4 6 5 5 4 3 2 2 2 2 1 1 1 1 1 2 3 3 2 3 1 1 3 1 2 2 1 0 2 2 2 4 3 3 2 1 2 1 2 2 3 2 3
4 4 4 6 7 6 6 5 5 7 8 8 7 8 7 7 6 7 6 6 5 5 6 6 3 3 4 3 4 3 2 0 1 1 1 2 2 1 1 2 3 3 4 5 5 5 5 4 4 3 2 1 1 1 1 1 1 2 2 5 1 2 2 1 3 0 3 2 2 3 2 1 2 3 3 4 3 2 1 1 0 1 1 1 1
10 10 10 7 5 6 7 7 7 5 6 5 6 9 7 7 6 6 6 5 6 4 5 5 6 6 6 5 4 4 3 3 4 3 3 4 4 3 3 2 3 3 3 4 4 4 4 3 3 3 2 1 3 4 2 2 1 3 1 1 5 2 1 1 2 3 3 3 1 1 0 1 1 1 2 1 2 1 1 1 0 0 0 1 2
11 8 7 8 7 7 8 8 6 7 7 8 8 8 7 8 8 8 7 6 5 5 7 8 8 7 7 6 6 6 5 4 3 3 2 2 2 4 3 2 3 3 3 3 4 5 4 4 4 4 3 3 4 3 3 4 3 2 6 5 4 6 3 2 2 3 3 1 6 3 2 1 1 0 2 0 2 1 2 2 1 2 1 0 0
6 12 12 9 7 7 7 8 8 8 9 8 8 8 8 7 7 6 6 5 6 5 7 7 7 8 7 8 7 5 6 5 3 3 2 3 2 0 3 3 3 4 3 3 3 3 3 4 5 5 4 4 4 3 3 2 2 1 0 1 2 1 4 3 2 3 3 4 3 2 3 2 2 1 0 0 2 1 2 2 1 1 1 1 1
4 1 3 5 6 8 9 11 11 10 8 6 6 7 8 8 8 8 8 6 6 6 6 7 6 6 6 6 6 7 8 2 1 0 2 2 2 4 3 4 4 5 4 4 4 3 3 4 5 5 5 4 3 3 3 2 2 1 1 3 2 4 4 3 4 2 3 4 4 3 3 2 3 3 1 1 2 2 2 2 1 2 2 1 2
7 7 5 6 10 13 15 12 11 10 8 6 7 7 9 9 8 8 6 6 6 7 6 7 7 4 4 4 3 5 5 5 5 4 2 2 5 3 4 4 4 4 4 4 4 4 4 5 6 6 6 4 4 4 3 2 4 2 3 3 3 3 4 5 4 2 3 1 3 3 3 3 3 4 3 2 3 2 1 3 1 3 4 3 2
6 8 9 10 11 11 10 10 8 7 8 9 8 8 7 8 8 6 6 6 6 7 7 5 6 6 6 5 3 1 3 4 3 4 4 2 5 3 4 4 4 4 3 4 3 4 4 6 6 6 6 4 4 5 3 3 4 4 3 4 4 4 3 3 4 3 2 2 3 2 4 3 3 2 2 2 2 2 0 1 3 4 3 4 6
5 6 4 6 7 7 6 6 7 8 7 6 7 6 6 6 6 6 6 7 5 4 5 5 5 7 6 5 6 4 4 3 3 4 3 3 4 3 3 4 4 5 4 3 4 3 4 5 6 7 6 5 4 5 4 4 4 4 3 4 4 5 3 4 5 4 3 3 2 3 2 2 3 2 3 3 3 2 3 1 0 2 4 3 5
7 6 4 2 1 5 7 10 7 5 5 6 7 7 5 3 8 12 10 8 6 4 3 4 7 7 8 7 8 8 6 6 5 3 3 3 4 2 3 3 3 3 3 3 3 3 4 4 5 5 4 4 5 4 4 4 4 4 4 4 5 5 4 5 6 4 4 4 3 3 4 3 2 1 1 0 1 1 2 1 1 0 0 1 4
6 6 5 5 4 4 4 6 6 6 4 5 4 4 6 10 12 12 9 8 8 9 9 8 7 6 6 8 9 9 9 7 7 6 4 4 3 3 1 3 3 3 3 4 3 2 4 4 4 5 5 5 5 4 4 4 4 4 5 5 5 5 4 6 5 6 6 6 5 4 5 4 4 4 1 2 3 1 2 1 1 2 1 1 3
7 6 6 6 7 7 7 6 4 5 8 6 5 7 10 11 12 13 12 12 12 12 11 10 8 7 6 6 6 7 8 8 7 6 4 5 4 3 3 3 2 3 2 4 2 3 4 5 4 6 5 4 4 4 4 4 5 5 5 5 5 5 4 5 7 5 5 7 6 3 5 5 4 2 4 5 4 5 5 3 1 1 1 2 1
6 7 7 7 8 7 7 7 6 5 4 5 6 9 9 9 11 14 13 13 11 10 10 8 6 6 5 3 5 5 5 5 6 7 5 4 4 4 3 4 4 3 2 3 3 2 2 3 4 4 4 4 4 4 4 4 5 6 5 6 5 4 5 6 6 5 5 4 4 6 5 6 3 2 3 4 3 4 4 2 0 2 1 1 2
4 3 2 3 3 4 5 4 5 5 5 6 6 8 9 8 9 9 10 12 14 10 8 10 8 6 8 7 5 3 6 5 5 6 6 5 3 3 2 2 2 2 3 2 1 2 3 4 4 5 5 5 5 4 5 5 5 6 6 6 4 4 6 6 5 6 6 5 4 5 5 4 3 2 3 3 4 4 5 3 4 3 3 4 4
4 5 5 4 1 4 5 5 5 5 5 4 6 8 9 9 9 12 14 11 5 12 11 6 3 2 3 9 8 9 6 5 4 4 4 4 4 5 4 2 2 1 2 1 2 2 4 4 4 5 4 5 5 5 5 5 5 6 5 5 5 3 6 6 4 6 5 5 5 4 5 3 2 3 4 4 4 4 5 4 5 5 5 3 4
9 4 3 4 3 3 1 4 4 5 6 7 6 7 9 9 9 9 5 9 15 13 9 7 7 7 7 5 5 6 7 7 7 6 5 4 3 4 4 3 1 1 1 2 2 1 2 4 4 4 4 4 4 4 5 4 4 5 6 5 5 4 5 5 4 5 4 4 4 4 5 5 2 2 4 4 3 3 2 2 3 5 4 5 2
5 1 2 2 2 3 3 2 5 7 9 8 8 8 9 8 9 8 3 11 12 11 12 11 9 3 1 5 7 7 7 6 6 6 5 5 3 3 3 2 3 2 1 0 1 2 1 1 3 3 4 4 4 4 4 5 5 5 5 4 4 4 5 3 3 4 4 4 4 3 3 4 1 4 3 3 3 3 4 4 3 2 4 5 1
5 2 3 3 4 4 3 2 2 4 5 5 3 4 5 4 3 4 6 11 11 7 5 4 5 6 7 7 7 6 6 7 6 5 6 6 5 4 4 4 3 3 3 2 1 1 1 1 0 2 3 4 4 5 5 5 5 6 4 5 3 4 5 4 2 3 2 4 4 4 3 3 3 4 4 4 4 4 4 4 5 4 4 4 3
4 3 3 2 3 3 3 2 2 3 4 3 3 4 6 5 5 5 6 9 10 9 9 10 10 7 5 5 5 4 6 8 8 8 7 8 7 6 4 4 5 4 4 3 3 3 3 2 1 0 0 0 1 1 2 4 4 4 5 6 4 4 4 4 2 1 3 3 4 4 2 3 2 4 4 4 4 4 4 6 5 6 5 3 3
4 3 4 4 3 3 4 3 2 1 0 0 2 3 5 5 4 4 8 9 10 10 11 10 10 9 7 8 8 6 6 6 5 5 6 5 2 4 6 6 4 5 4 4 4 4 4 4 3 3 3 2 2 2 1 1 3 3 3 4 4 4 5 4 3 2 2 4 3 3 1 1 1 5 3 4 5 4 6 6 5 6 6 4 4
3 2 4 4 4 4 3 2 1 1 1 2 1 4 6 6 5 5 5 6 9 10 11 10 11 8 6 7 8 8 8 6 7 6 8 8 7 5 4 3 5 5 4 5 5 4 4 4 4 3 2 1 1 1 1 1 3 3 3 3 4 4 4 4 3 4 3 2 3 4 2 1 2 4 4 4 4 5 5 6 5 6 6 5 2
3 3 2 2 3 2 1 1 1 1 1 1 2 3 5 6 6 5 6 5 6 7 7 7 7 7 7 7 8 8 7 8 8 8 7 6 6 6 4 4 3 2 3 4 5 5 5 4 4 3 3 3 3 3 2 2 2 3 3 3 4 4 4 4 4 4 4 3 3 4 4 3 2 4 3 3 4 5 4 6 4 4 5 4 4
3 3 3 3 3 2 2 2 2 2 1 1 2 4 4 5 5 6 6 6 5 6 6 7 7 7 8 8 8 8 10 9 9 8 7 6 4 4 4 4 2 1 2 3 3 4 4 5 5 4 4 4 4 4 4 4 4 4 3 3 2 2 3 4 5 5 4 4 5 4 4 4 3 4 3 4 3 3 5 4 4 3 5 4 3
3 4 4 4 3 3 2 1 1 1 1 2 2 4 4 4 4 5 6 6 6 5 6 6 7 7 6 7 7 8 10 9 9 8 7 6 5 6 6 6 6 6 5 3 6 4 4 4 7 7 6 6 6 5 4 5 4 4 5 4 4 4 3 3 4 4 5 5 5 5 5 4 4 4 3 4 3 4 3 4 4 3 4 3 3
5 4 4 4 3 2 2 1 0 0 0 0 1 3 4 3 3 4 5 5 5 4 5 7 7 8 7 7 7 5 7 8 8 7 7 7 8 9 8 7 5 5 5 8 10 6 5 5 5 5 5 5 5 5 5 6 5 4 4 4 4 4 4 4 4 4 5 4 5 5 5 5 5 6 5 4 4 4 3 4 4 3 3 3 4
7 6 4 4 3 3 2 1 0 0 1 1 1 1 4 4 2 2 2 3 3 3 4 4 4 6 7 6 6 5 4 2 1 2 5 5 6 7 7 6 3 6 5 4 4 3 2 1 2 4 6 5 4 4 4 4 4 3 4 4 4 4 4 4 4 5 5 5 5 5 5 5 6 5 6 6 5 5 5 4 5 4 3 4 3
3 4 5 4 3 2 3 2 1 1 1 1 2 2 2 2 3 2 2 2 3 4 5 4 4 5 6 6 6 6 5 5 4 2 2 3 2 3 3 4 5 6 7 7 5 5 4 4 4 4 4 5 6 5 4 5 4 4 4 5 5 5 5 5 5 5 5 5 6 5 5 6 6 6 6 6 7 6 4 4 4 4 4 4 4
5 5 3 2 1 1 2 2 2 1 2 1 1 2 3 3 1 1 0 1 0 1 3 4 6 7 8 7 5 4 5 6 5 5 3 3 4 4 3 4 4 2 2 3 3 1 2 5 4 4 4 5 9 9 7 6 5 5 5 6 6 7 7 6 5 5 5 5 5 5 5 6 6 8 10 9 7 8 6 5 3 3 3 4 3
6 6 5 6 5 4 4 4 1 2 2 2 3 3 3 4 3 2 2 1 0 0 1 1 2 3 3 2 3 3 4 4 3 4 5 6 6 3 2 4 6 9 7 3 3 7 8 7 4 4 6 9 10 8 7 11 9 6 5 5 5 6 6 5 5 5 5 5 6 6 6 10 11 10 10 10 10 9 7 7 7 5 5 4 3
6 8 8 7 7 7 5 5 4 5 3 2 2 2 3 4 4 4 4 2 2 2 2 3 4 2 2 2 2 3 3 4 5 5 6 5 3 5 7 5 5 8 4 2 6 7 7 6 6 5 6 7 7 6 9 9 10 11 6 5 5 6 5 6 6 7 7 8 7 6 5 7 8 8 8 10 10 10 9 9 9 8 8 6 5
9 8 8 9 9 8 8 8 7 6 6 6 4 2 1 3 3 4 4 4 4 5 5 5 3 2 3 4 4 4 4 5 5 6 6 5 4 5 6 6 4 4 6 10 5 7 5 3 2 3 6 8 6 8 10 10 9 10 8 6 4 5 5 6 6 7 7 7 7 6 3 3 5 6 6 7 7 9 9 8 8 8 7 7 7
8 9 8 8 7 6 6 7 7 8 8 7 5 5 3 2 2 2 3 4 4 4 4 4 4 4 4 4 4 4 5 4 5 6 4 4 6 6 6 6 8 6 4 5 7 3 3 3 5 8 9 7 6 9 9 10 10 9 9 7 5 5 5 6 6 7 7 7 5 5 5 4 4 8 6 6 6 5 4 5 4 3 2 1 4
5 5 5 5 6 7 7 6 6 7 7 5 5 5 5 4 4 0 3 4 4 4 4 4 4 4 5 5 5 5 5 5 4 4 3 4 4 4 4 3 2 4 6 6 4 6 6 7 8 7 6 4 5 8 8 9 9 9 8 7 5 5 5 5 6 7 6 6 6 7 7 5 3 4 3 4 4 4 4 3 3 3 2 4 5
6 7 5 4 3 4 7 9 9 9 7 8 9 10 8 6 6 3 3 3 3 3 2 0 1 1 4 5 6 5 5 4 4 3 3 3 4 3 3 3 4 5 5 5 7 7 7 5 4 4 5 5 6 4 6 9 8 7 8 7 4 3 4 4 4 4 4 4 4 4 4 5 5 3 2 2 3 4 4 4 4 3 3 3 3
5 6 6 6 5 4 5 4 4 8 8 5 7 8 9 9 5 6 5 4 4 5 4 3 2 2 1 3 4 5 4 4 4 4 4 4 3 4 4 3 4 4 3 4 3 3 1 0 2 3 3 5 3 2 3 6 8 6 8 4 4 4 3 2 2 2 3 4 6 6 6 6 6 5 4 7 4 5 5 5 4 3 3 4 3
4 4 5 6 3 3 1 0 0 1 6 5 6 9 9 8 7 6 5 6 6 6 6 4 3 1 1 0 2 5 5 5 5 5 5 4 4 2 2 1 5 4 5 5 3 2 1 1 1 1 2 4 2 3 4 5 6 6 6 4 3 4 4 4 3 3 3 3 4 5 6 6 5 4 3 9 9 9 6 5 5 3 2 3 2
5 5 6 7 6 6 4 4 4 4 4 3 2 0 4 6 7 5 6 7 7 6 4 5 5 3 3 1 1 2 6 5 5 6 5 4 3 2 3 3 3 4 4 3 2 3 2 1 2 3 1 3 3 3 5 6 7 8 7 6 5 6 5 5 4 4 4 4 3 8 7 7 7 6 8 11 10 9 6 5 4 3 2 2 3
5 4 5 7 6 5 4 4 4 5 7 4 6 5 4 5 5 6 1 1 5 7 8 2 2 3 2 0 3 1 2 5 5 5 5 5 4 4 3 3 3 5 4 2 2 5 3 4 3 2 3 2 3 4 4 4 6 9 6 5 6 6 6 4 5 5 4 5 5 7 10 8 7 7 11 10 9 7 5 4 4 4 2 2 1
5 5 4 3 4 7 8 8 7 6 4 5 6 5 4 4 6 4 4 4 6 9 9 5 4 1 0 1 2 2 2 3 3 2 2 2 1 2 1 1 2 4 4 4 4 4 5 4 4 4 4 3 2 1 2 3 4 7 9 6 6 7 6 5 4 5 6 5 6 6 8 11 11 11 10 9 8 8 7 4 4 4 3 1 0
4 5 5 4 3 2 3 4 4 4 4 4 4 4 5 5 4 3 5 6 7 5 4 4 4 3 2 1 1 2 3 3 3 3 2 1 1 1 1 2 3 3 3 3 3 3 4 4 4 3 3 4 1 1 1 1 3 5 8 8 4 6 6 7 6 5 5 6 5 5 5 7 9 9 9 9 9 8 7 4 4 3 1 1 3
4 5 4 5 4 4 4 4 4 4 3 3 4 4 5 5 5 6 8 7 5 5 5 4 4 5 4 3 3 3 2 2 2 2 1 1 1 0 1 1 1 3 3 3 3 3 4 3 4 4 4 3 4 3 1 2 5 7 7 8 7 5 7 9 7 5 5 5 5 5 5 5 8 8 8 8 8 7 6 3 2 2 1 1 1
8 8 6 5 6 6 5 5 5 4 3 2 1 3 4 4 5 8 8 7 7 7 5 3 4 4 4 4 4 5 5 3 3 4 4 3 2 2 1 3 3 3 3 3 3 3 3 2 2 3 3 3 3 3 4 3 4 7 8 8 9 8 7 5 8 7 6 6 4 4 4 5 6 7 7 7 6 6 5 2 1 2 2 2 1
8 7 7 6 6 6 8 6 5 4 4 3 1 3 3 4 6 7 6 6 6 5 4 6 5 5 5 4 5 5 4 4 5 5 4 3 3 3 3 4 4 4 4 4 3 3 3 3 3 2 3 3 3 4 6 6 5 9 10 10 10 10 9 6 7 7 6 6 6 4 4 5 5 5 5 5 5 4 2 3 2 2 2 2 2
9 10 9 8 9 10 9 8 7 5 5 4 4 4 4 5 5 5 5 5 5 5 5 5 6 6 5 5 5 5 5 5 5 5 3 2 1 2 1 2 3 4 4 4 4 3 3 3 2 3 2 3 4 5 5 6 9 11 12 13 13 14 13 14 9 5 4 4 5 7 7 5 5 7 7 7 6 4 3 3 6 7 6 4 5
8 8 10 8 9 9 9 9 9 7 7 6 5 5 6 6 4 5 5 4 4 4 4 6 7 6 7 5 4 5 5 5 5 5 5 5 4 2 2 1 2 3 4 4 4 4 4 4 4 3 3 4 4 5 5 4 5 8 9 12 13 13 12 13 11 8 8 9 8 8 8 8 8 6 5 4 3 3 6 8 7 6 4 4 3
7 7 8 10 9 10 10 10 11 8 6 7 7 7 7 6 6 6 5 4 4 3 4 4 5 7 6 5 6 5 4 1 2 3 4 5 7 7 5 4 2 3 3 4 5 5 3 3 5 3 2 3 5 5 4 4 4 6 6 7 9 9 11 11 8 6 7 6 7 6 6 7 7 8 7 6 6 5 5 5 4 3 3 2 2
6 7 7 9 10 10 11 11 11 10 8 8 7 7 8 7 6 5 4 4 5 5 5 4 4 3 4 4 5 6 5 5 3 3 5 4 3 4 7 6 5 5 5 4 5 5 6 6 6 6 5 5 3 2 3 5 4 6 6 6 6 6 5 6 6 6 6 6 6 6 7 4 5 6 6 5 5 4 3 3 3 2 3 2 3
9 9 7 9 10 12 13 13 13 9 8 9 9 8 7 8 8 6 5 5 6 6 6 6 5 4 5 4 4 3 3 5 4 3 4 2 1 2 5 4 3 3 6 7 7 6 6 7 8 9 9 8 8 8 7 5 7 8 9 7 5 6 6 6 7 10 7 5 6 6 6 6 5 4 4 3 4 5 3 3 3 4 4 4 4
9 9 10 10 11 11 13 14 13 10 9 10 10 10 7 6 6 7 6 6 6 6 5 6 6 5 5 5 5 4 2 4 5 5 5 3 5 4 1 2 2 2 4 5 8 7 9 9 8 6 5 10 12 9 10 10 8 9 9 9 9 9 9 9 9 10 7 7 5 5 4 6 4 4 3 2 1 1 2 4 4 4 4 5 4
10 11 12 10 11 11 12 14 13 11 11 11 11 11 11 8 4 5 6 7 6 7 6 6 5 5 6 6 5 5 3 4 4 5 5 6 4 3 8 7 1 5 5 5 5 5 10 11 10 7 4 10 10 12 13 11 10 11 12 12 12 11 12 13 12 9 6 5 5 6 4 3 2 2 2 0 0 1 2 2 4 4 5 4 4
Wind_Direction
171 140 136 147 158 153 156 160 147 134 148 163 158 160 165 157 141 140 142 135 139 142 144 140 124 103 75 90 109 102 116 94 89 153 161 194 176 157 161 171 178 168 168 161 183 181 139 110 95 75 87 133 153 176 199 190 167 149 142 111 123 104 39 4 326 77 110 69 26 68 56 55 96 100 81 45 46 36 37 52 79 92 100 250 312
123 136 150 154 158 157 153 154 141 139 165 163 164 162 158 146 144 140 140 145 159 156 150 138 126 136 132 141 125 101 85 80 56 307 225 261 233 186 179 188 185 179 171 157 158 161 152 154 150 135 155 175 177 162 183 180 156 143 135 53 5 113 123 316 292 94 26 144 147 314 1 349 60 82 51 39 43 30 6 7 6 71 136 175 162
163 175 168 172 164 154 152 154 162 161 165 169 163 143 141 139 138 142 148 150 154 144 136 129 95 92 105 132 124 104 77 92 110 15 60 78 54 62 125 171 178 179 182 167 156 158 161 159 157 130 139 148 120 123 243 201 199 198 174 144 86 73 101 16 334 23 157 166 129 80 345 50 336 25 16 27 18 353 0 53 16 21 19 31 51
183 182 182 179 171 155 153 160 165 158 165 160 161 148 145 143 144 145 153 150 143 134 115 96 99 88 81 102 75 96 120 71 65 40 39 54 43 25 34 47 87 98 144 160 145 142 146 148 108 112 124 144 138 170 189 205 189 205 107 184 137 98 97 12 4 3 110 123 35 41 197 113 8 5 0 315 340 298 33 35 32 70 27 19 19
180 183 182 175 174 168 165 162 155 166 177 171 163 157 155 157 159 155 158 153 135 117 114 115 104 91 97 79 86 77 57 53 58 32 15 80 82 40 19 36 77 69 64 95 120 126 126 133 128 125 131 135 143 154 181 204 222 181 190 176 179 150 143 138 56 41 48 64 139 110 44 29 216 282 10 309 348 17 334 338 170 158 188 241 343
200 190 186 176 158 150 160 163 167 179 183 179 168 161 154 159 155 154 146 138 123 118 125 122 129 133 132 132 133 123 128 121 118 137 70 55 67 334 42 36 70 82 70 81 88 107 117 131 128 126 115 95 103 132 152 168 189 168 292 134 94 71 134 132 113 29 64 64 87 138 168 174 178 194 49 191 307 210 287 300 324 31 89 115 293
174 181 163 154 162 161 173 175 178 179 186 172 166 161 161 161 165 163 156 135 115 121 125 120 123 144 153 154 152 152 143 165 177 217 113 58 57 63 50 37 35 80 75 91 103 98 94 93 107 104 97 97 110 111 115 147 133 114 118 93 139 121 116 120 141 145 72 49 46 50 69 59 128 128 166 89 23 314 10 356 342 350 353 28 13
181 188 174 177 177 177 179 179 177 181 172 168 169 170 168 172 170 164 145 126 124 131 133 140 140 136 118 117 137 147 149 144 136 117 79 97 74 46 56 38 35 45 78 74 90 103 106 98 106 108 98 99 97 99 120 122 95 65 88 110 97 98 120 133 140 148 136 130 47 43 48 55 59 75 115 153 162 157 312 324 296 2 13 37 358
174 183 181 183 183 186 175 175 175 169 174 174 178 177 175 175 168 147 130 117 123 137 135 141 133 136 142 140 119 85 106 110 114 89 95 84 87 36 59 52 47 43 52 86 75 95 94 104 105 104 104 107 117 120 110 106 112 119 101 86 91 73 92 124 125 150 102 148 122 56 57 43 41 48 83 73 117 104 292 348 319 326 16 15 7
179 190 180 195 189 182 173 156 171 184 179 172 167 166 174 172 153 121 73 54 58 82 119 123 130 139 143 156 141 129 108 82 81 91 80 82 95 58 61 64 56 65 50 62 82 75 99 101 103 104 109 112 101 101 98 87 84 88 98 112 109 92 70 107 134 144 128 115 114 143 94 51 31 19 27 66 48 75 153 161 326 39 30 319 356
172 171 161 166 187 169 161 177 178 164 175 176 170 169 163 112 71 63 67 80 85 92 100 148 156 160 155 158 152 146 146 137 121 92 86 79 104 79 70 63 48 63 67 60 73 97 94 98 99 99 93 90 91 88 84 91 79 84 83 83 76 87 87 89 85 83 98 91 83 105 133 149 161 150 191 131 132 101 57 0 332 265 186 20 357
150 149 136 139 128 165 174 175 174 176 173 178 170 133 87 83 98 100 113 134 150 151 148 161 160 160 160 159 159 158 153 155 151 156 157 150 152 133 72 78 61 47 60 83 76 76 94 81 86 88 88 86 82 87 84 78 73 73 67 69 69 62 66 77 77 78 78 78 61 56 69 78 64 89 159 121 104 149 118 131 7 338 5 265 281
148 148 146 156 170 176 185 184 166 181 192 181 145 105 107 124 132 137 159 167 168 169 164 159 153 148 146 161 163 156 157 157 155 154 168 160 162 139 122 123 90 88 90 107 135 133 123 110 105 103 95 90 93 83 82 79 79 75 77 71 68 67 72 84 81 75 81 87 90 54 75 67 65 79 113 108 84 110 106 90 354 78 106 316 301
149 158 171 176 176 187 187 179 181 183 190 174 135 123 137 150 157 170 170 166 173 172 159 121 106 128 141 146 158 157 155 168 159 157 167 163 159 161 164 158 155 169 170 167 184 162 123 130 119 106 104 104 101 102 95 94 94 93 87 85 81 91 84 82 93 93 85 97 102 86 74 86 84 84 112 98 126 89 66 83 65 4 75 338 306
91 99 117 162 185 179 179 174 173 185 189 178 151 136 144 154 173 176 177 185 179 162 112 116 131 139 133 150 183 163 169 188 162 154 154 153 159 155 166 135 154 209 204 219 211 131 132 116 119 119 124 123 123 116 113 104 103 98 99 104 102 106 93 96 98 107 102 103 92 110 113 89 105 100 94 96 107 104 131 142 94 53 352 22 14
41 79 79 57 91 172 172 174 185 187 194 187 159 147 154 167 179 187 188 183 111 54 49 65 91 73 165 164 180 167 181 159 138 135 144 158 161 161 169 178 199 229 279 296 239 162 136 124 117 127 133 131 126 126 119 110 108 105 99 101 101 100 99 97 113 102 108 114 120 129 95 95 98 88 85 96 84 119 116 113 102 99 95 10 356
354 10 49 76 61 49 107 184 189 192 193 199 178 160 163 169 185 197 186 87 94 99 138 156 161 164 233 196 177 163 169 162 160 162 160 158 161 162 161 186 177 185 284 326 298 285 135 131 128 131 132 128 120 121 118 115 115 113 116 112 113 103 103 116 120 110 130 125 103 106 114 108 73 98 79 83 93 71 90 121 120 122 138 109 43
153 9 6 27 68 83 75 148 195 199 203 201 193 169 170 175 189 193 134 97 103 159 168 169 175 173 198 190 193 182 166 158 157 157 153 147 157 141 128 145 196 190 185 299 334 319 322 100 122 136 143 138 142 138 133 131 122 117 123 119 125 113 102 94 101 117 127 110 106 87 95 76 57 70 72 82 85 107 93 89 90 103 118 113 150
88 75 47 31 30 25 38 87 164 212 221 217 189 128 114 102 103 139 126 133 149 161 160 151 132 163 211 198 190 184 169 152 157 158 148 160 176 166 173 190 181 180 173 186 191 271 302 309 55 144 154 163 158 159 150 145 141 134 138 129 128 117 114 115 123 117 135 113 107 96 81 77 64 81 68 57 53 66 94 104 88 76 56 119 132
118 131 107 55 57 44 49 71 121 182 201 211 160 128 114 123 134 130 129 143 157 170 170 177 183 197 187 181 180 187 175 165 166 165 165 172 184 176 178 177 202 185 186 172 183 203 218 225 265 268 256 100 185 181 167 153 144 146 146 139 148 127 122 134 131 89 115 108 108 98 79 100 84 81 67 59 68 61 76 79 86 81 57 58 108
137 157 113 91 74 54 41 30 25 17 326 153 130 111 103 116 119 124 133 146 169 175 176 183 181 191 179 175 165 163 179 164 147 160 153 151 159 221 183 197 170 195 179 184 189 204 204 202 201 211 191 190 188 196 250 140 134 140 146 146 150 149 146 166 139 119 100 119 114 113 104 58 66 80 67 60 64 75 74 73 76 78 65 40 69
111 95 91 85 67 51 37 32 23 69 112 165 133 114 115 119 133 126 124 151 154 170 181 179 183 179 175 168 159 158 171 162 155 168 162 182 185 206 217 170 190 202 181 194 196 200 203 195 198 214 214 182 214 203 221 193 165 157 171 162 157 159 156 166 151 153 139 123 128 124 135 75 62 95 74 64 76 70 75 74 58 80 71 52 28
80 63 45 63 79 92 91 78 78 86 95 115 131 113 122 131 134 139 135 153 158 158 164 163 162 164 170 172 165 164 163 163 166 175 186 189 188 186 169 188 216 222 201 202 207 202 198 192 196 207 203 206 196 198 200 204 205 191 188 198 184 171 167 165 171 182 166 144 127 147 175 170 125 84 74 90 89 86 83 86 80 78 84 69 50
127 159 148 135 123 117 75 42 24 18 10 20 75 98 114 131 139 147 147 148 149 149 150 157 157 162 171 174 171 167 174 171 172 179 174 185 188 185 185 179 145 79 348 319 289 239 199 191 195 203 209 212 207 203 190 190 199 195 207 224 237 225 195 181 181 185 173 167 165 158 182 173 140 104 107 95 84 95 96 102 95 89 97 90 74
170 160 143 127 116 100 86 44 23 8 8 7 45 95 110 130 144 152 164 162 158 156 146 148 152 155 163 170 176 177 178 177 177 171 173 171 166 172 179 194 191 182 164 203 262 257 241 215 206 203 204 211 218 209 202 203 202 193 192 194 202 215 224 215 205 196 190 180 176 179 180 166 146 125 137 126 134 112 119 111 112 116 107 114 83
161 141 115 122 118 94 88 92 44 326 329 351 29 83 107 119 153 159 164 175 167 153 155 149 152 152 165 182 179 171 177 178 176 171 170 172 176 189 202 207 192 158 160 206 226 227 218 235 241 230 211 215 219 214 213 212 207 197 195 197 195 199 214 219 220 213 200 193 183 194 180 172 165 159 172 158 141 134 126 117 119 116 109 92 98
154 142 132 103 96 118 131 168 279 311 333 4 6 37 93 121 138 173 176 167 155 139 145 146 147 158 168 182 166 151 117 71 58 160 164 170 185 192 193 207 151 148 161 202 240 258 271 347 334 337 302 275 254 234 233 233 220 195 197 199 208 212 213 215 224 220 216 202 197 188 183 182 180 174 160 167 158 150 145 145 145 143 134 114 99
90 107 121 130 137 143 151 177 160 142 19 23 21 42 60 92 148 161 184 182 148 148 147 160 167 172 185 185 173 153 132 128 120 99 106 133 184 193 167 140 140 162 181 179 191 202 219 206 205 207 250 265 256 252 251 243 221 200 195 206 209 213 219 221 222 223 220 216 207 198 190 191 187 182 172 174 158 156 145 137 161 139 149 117 118
30 28 30 64 88 157 174 174 175 149 136 99 65 64 75 75 83 91 104 265 21 134 161 163 173 183 196 191 158 153 151 158 155 159 152 183 205 196 164 153 149 100 184 176 134 128 232 240 201 179 225 259 267 252 228 230 226 214 200 210 212 215 219 221 224 220 219 220 216 206 202 197 197 189 185 170 173 157 148 148 180 148 127 116 123
44 50 45 51 48 28 5 347 328 199 181 176 163 154 143 141 150 153 160 266 67 299 174 190 212 213 218 186 166 191 176 175 170 179 184 191 195 127 128 175 172 191 219 161 172 201 204 215 209 205 213 229 234 239 239 230 225 218 216 220 218 220 218 218 224 227 226 226 223 213 209 201 195 184 175 169 165 166 162 157 165 155 139 130 144
36 47 38 37 43 35 31 36 8 328 292 239 210 194 183 167 166 169 172 172 137 177 207 202 214 222 228 199 221 225 197 198 196 201 213 199 182 183 203 199 193 204 195 236 210 215 217 209 203 207 218 220 230 238 240 232 231 233 226 225 225 228 219 219 219 217 218 218 223 219 212 197 184 167 168 169 166 162 156 154 158 162 160 151 159
31 38 41 37 35 36 36 27 14 9 350 331 315 292 248 215 190 183 178 159 156 169 175 193 195 167 185 194 212 211 207 210 195 206 211 203 190 183 198 196 183 178 182 220 220 227 226 231 238 242 238 232 229 233 238 244 237 233 230 229 226 229 227 223 222 220 223 215 212 202 190 177 171 169 162 169 164 160 154 157 163 170 172 172 166
37 32 28 25 20 22 33 26 26 19 8 351 344 326 300 295 247 227 132 153 162 179 180 189 188 175 191 195 188 197 208 212 211 209 199 185 179 186 192 178 182 178 164 194 226 239 245 215 211 220 232 236 242 251 246 244 244 237 227 224 240 229 226 228 221 222 222 214 194 176 172 177 177 168 157 162 157 157 145 134 143 157 175 72 12
39 45 42 26 14 11 15 26 23 11 7 353 1 344 320 322 317 20 124 155 148 158 168 189 194 200 196 186 186 179 189 207 214 209 188 191 189 209 212 210 167 143 172 184 188 195 197 202 209 214 224 243 247 261 262 256 249 242 234 210 235 229 221 220 219 218 217 201 184 178 169 171 156 152 151 162 155 146 136 104 74 51 40 30 41
28 21 9 14 24 19 19 14 7 358 2 4 9 6 347 358 357 357 3 30 38 61 35 6 88 161 170 168 178 183 184 197 191 178 161 168 174 172 157 171 153 149 149 158 167 172 184 198 210 212 213 224 237 234 241 246 248 233 220 206 231 235 230 225 222 211 196 174 170 164 158 146 141 136 118 129 136 139 122 98 85 67 56 65 61
16 21 11 5 348 9 45 3 348 339 346 18 11 358 359 345 350 14 359 28 28 47 20 356 12 353 309 155 149 155 154 147 143 141 130 128 125 114 100 63 59 60 75 88 65 65 52 161 201 198 215 251 262 280 227 221 218 193 172 179 195 203 188 153 115 116 132 142 148 151 142 132 137 142 126 133 153 134 121 111 99 92 85 74 67
359 15 6 3 355 311 288 226 254 326 328 347 16 4 342 344 352 2 6 11 29 30 12 4 27 332 339 320 157 141 144 149 150 130 131 142 126 109 102 85 77 64 68 64 58 52 22 349 326 209 213 261 280 307 277 236 224 164 141 146 128 113 103 98 84 82 86 103 124 135 128 123 108 93 104 123 118 108 102 112 117 108 97 93 54
351 355 0 0 352 355 343 352 336 327 298 304 343 275 295 328 333 354 9 11 13 356 340 349 0 356 312 222 233 169 149 161 153 150 158 161 155 154 157 178 134 120 91 109 139 111 58 40 15 346 323 285 274 282 259 232 196 175 156 140 135 121 116 107 87 53 54 57 78 105 109 111 110 108 114 111 119 113 114 123 120 98 56 24 353
343 352 349 346 346 335 342 1 355 349 336 303 308 318 301 287 287 297 20 44 27 325 313 326 334 314 332 265 157 221 190 170 168 176 165 162 172 158 157 149 126 107 115 142 92 80 57 43 25 13 9 18 331 333 327 263 183 166 146 136 134 129 119 114 105 77 44 58 54 61 86 100 106 114 106 102 99 100 108 111 113 95 77 33 292
331 339 332 325 341 5 5 2 354 341 332 326 311 310 293 274 275 285 296 250 191 215 238 235 256 257 214 145 161 175 177 187 207 188 202 158 146 102 74 69 54 81 94 67 66 69 62 20 9 21 33 51 63 354 349 324 194 167 151 139 140 131 135 127 112 112 96 57 63 69 73 90 95 93 92 95 96 105 115 118 102 100 109 49 254
318 313 324 344 350 15 333 308 302 308 329 333 338 329 318 306 297 253 247 247 260 250 247 230 235 235 204 197 216 158 174 211 194 177 171 132 102 102 99 140 137 94 90 66 70 75 68 31 14 17 32 28 44 76 5 28 178 167 150 140 138 131 134 131 123 104 104 106 90 83 83 93 100 102 102 95 91 91 102 111 108 127 159 149 142
296 301 314 320 317 319 312 310 304 311 320 343 359 356 319 316 321 300 279 270 255 246 232 243 222 210 216 208 200 228 209 201 182 133 126 324 12 103 145 179 125 128 108 90 87 78 81 43 14 18 26 23 23 62 73 79 129 137 135 127 126 141 148 130 112 105 103 97 109 114 114 112 107 104 100 97 94 93 90 94 111 121 156 166 237
320 321 314 308 311 305 289 271 277 288 299 307 46 340 312 313 311 287 287 292 298 300 283 230 228 245 234 204 198 193 197 193 176 172 159 169 177 142 146 127 126 110 104 106 107 111 103 82 31 18 20 23 19 32 56 69 95 111 109 110 121 130 127 118 126 123 124 125 125 117 111 100 89 89 89 90 88 80 70 55 54 345 337 331 295
310 306 305 307 296 288 287 281 270 268 270 263 230 273 269 287 285 284 292 292 288 275 271 284 267 222 230 232 203 202 202 190 173 161 160 150 146 124 121 132 134 139 129 124 141 130 119 119 115 78 41 30 26 38 41 57 80 87 90 91 88 86 92 95 103 117 126 128 126 125 118 108 92 87 82 79 80 74 70 47 19 22 42 52 29
316 315 318 320 311 305 298 291 284 276 269 261 239 243 255 257 261 278 293 296 289 285 279 264 259 262 238 227 231 222 203 190 189 154 138 155 165 150 148 149 136 136 145 158 180 168 158 153 124 124 105 55 40 49 55 57 77 84 88 92 93 95 100 102 96 103 106 112 120 119 117 107 79 75 80 79 74 77 90 78 54 44 39 30 24
328 331 336 329 324 320 315 305 298 290 284 274 261 235 246 252 254 261 262 275 289 292 281 264 261 252 255 259 245 238 223 200 172 157 183 192 185 186 204 191 129 146 156 157 163 158 152 157 160 160 153 126 91 89 74 59 65 81 83 84 87 88 88 91 98 101 104 98 94 89 90 89 89 92 89 84 83 70 67 52 47 44 41 32 21
318 314 322 323 327 320 315 314 308 309 303 289 282 272 252 254 257 258 268 271 278 275 270 269 256 258 247 217 215 227 224 133 136 155 163 171 168 164 171 173 158 153 148 149 151 162 161 157 164 159 113 100 109 105 96 89 86 92 93 93 90 85 88 87 85 88 86 87 87 91 97 100 99 93 90 83 69 48 44 28 24 21 20 3 344
300 302 308 309 309 307 304 304 301 303 306 297 288 280 278 276 266 260 264 273 274 269 268 268 262 249 254 244 225 203 185 143 139 148 145 137 149 161 162 172 172 177 159 171 164 174 179 171 139 114 100 64 23 62 140 142 135 120 114 110 104 110 109 116 107 103 105 103 102 96 84 65 66 56 50 43 35 40 51 24 0 350 333 317 306
308 305 302 296 298 296 294 294 291 294 296 295 290 283 277 276 276 269 255 254 257 261 252 253 257 278 279 254 242 235 167 147 127 86 62 70 140 185 183 213 231 170 171 172 186 187 180 177 159 155 151 161 168 186 200 190 167 156 142 131 126 126 124 112 131 130 109 85 81 74 72 60 56 70 55 43 18 18 354 353 344 332 325 320 317
302 300 298 295 289 287 289 289 289 293 293 288 288 288 284 278 280 278 267 244 245 249 249 250 250 245 250 263 269 244 167 151 153 145 124 74 48 84 139 192 275 300 238 227 169 180 185 169 172 188 172 170 187 179 175 174 157 139 124 121 123 128 130 131 133 121 109 97 85 90 86 100 93 87 75 49 358 340 331 335 324 310 316 315 308
302 301 298 294 293 294 292 289 291 293 286 283 282 282 284 281 272 279 278 261 231 227 238 246 246 243 239 236 234 244 212 166 158 151 150 136 115 34 43 44 16 292 219 179 183 145 159 172 162 150 110 100 117 145 153 145 136 124 121 121 124 126 127 129 130 107 64 99 116 110 113 103 124 127 130 170 242 330 322 321 314 312 298 297 296